Belgrade, MT

11:44 AM MST on February 25, 2017 (GMT -0700)
Gallatin

Weather History for KBZN - October, 2012

Change the Weather History Date:

Monday, October 8, 2012

  Actual Average Record
Temperature  
Mean Temperature 42 °F 49 °F  
Max Temperature 58 °F 65 °F 83 °F (1942)
Min Temperature 26 °F 33 °F 14 °F (1985)
Degree Days  
Heating Degree Days 23 16  
Month to date heating degree days 179 119  
Since 1 July heating degree days 430 424  
Cooling Degree Days 0 0  
Month to date cooling degree days 0 0  
Year to date cooling degree days 284 368  
Moisture  
Dew Point 24 °F    
Average Humidity 49    
Maximum Humidity 75    
Minimum Humidity 22    
Precipitation  
Precipitation T in 0.04 in 0.68 in (2005)
Month to date precipitation T 0.33  
Year to date precipitation 7.04 11.94  
Snow  
Snow 0.00 in 0.10 in 1.20 in (1975)
Month to date snowfall T 0.4  
Since 1 July snowfall T 0.7  
Since 1 September snowfall T 0.7  
Snow Depth 0.00 in    
Sea Level Pressure  
Sea Level Pressure 29.98 in    
Wind  
Wind Speed 4 mph (SW)    
Max Wind Speed 18 mph    
Max Gust Speed 23 mph    
Visibility 10 miles    
Events Rain    
T = Trace of Precipitation, MM = Missing Value Source: NWS Daily Summary

Daily Weather History Graph

Daily Weather History Graph

Search for Another Location

Airport or City:

Trip Planner

Search our weather history database for the weather conditions in past years. The results will help you decide how hot, cold, wet, or windy it might be!

Date:

Astronomy

Oct. 08, 2012 Rise Set
Actual Time 7:32 AM MDT 6:50 PM MDT
Civil Twilight 7:02 AM MDT 7:20 PM MDT
Nautical Twilight 6:28 AM MDT 7:54 PM MDT
Astronomical Twilight 5:53 AM MDT 8:29 PM MDT
Moon No Moon Rise 3:01 PM MDT (10/8)
Length of Visible Light 12h 17m
Length of Day
11h 17m
Last Quarter, 46% of the Moon is Illuminated
Oct 8
Last Quarter
Oct 15
New
Oct 21
First Quarter
Oct 29
Full
Nov 6
Last Quarter

Hourly Weather History & Observations

Time (MDT) Temp. Windchill Dew Point Humidity Pressure Visibility Wind Dir Wind Speed Gust Speed Precip Events Conditions
12:56 AM 32.0 °F 24.2 °F 21.9 °F 66% 30.02 in 10.0 mi SE 9.2 mph - N/A   Clear
1:56 AM 37.9 °F 30.9 °F 23.0 °F 55% 29.99 in 10.0 mi SSE 10.4 mph - N/A   Clear
2:56 AM 37.0 °F 29.8 °F 21.9 °F 54% 29.98 in 10.0 mi South 10.4 mph - N/A   Clear
3:56 AM 28.0 °F - 21.0 °F 75% 30.00 in 10.0 mi Calm Calm - N/A   Clear
4:56 AM 28.0 °F - 21.0 °F 75% 29.99 in 10.0 mi Calm Calm - N/A   Clear
5:56 AM 30.9 °F 26.2 °F 21.9 °F 69% 30.00 in 10.0 mi South 4.6 mph - N/A   Clear
6:56 AM 33.1 °F 26.9 °F 21.9 °F 64% 30.00 in 10.0 mi SSE 6.9 mph - N/A   Clear
7:56 AM 30.0 °F 26.5 °F 23.0 °F 75% 30.03 in 7.0 mi ESE 3.5 mph - N/A   Clear
8:56 AM 35.1 °F - 23.0 °F 61% 30.03 in 10.0 mi Calm Calm - N/A   Clear
9:56 AM 42.1 °F - 23.0 °F 47% 30.02 in 9.0 mi Calm Calm - N/A   Clear
10:56 AM 46.9 °F - 23.0 °F 39% 30.00 in 10.0 mi Calm Calm - N/A   Clear
11:56 AM 51.1 °F - 21.0 °F 31% 29.98 in 10.0 mi Calm Calm - N/A   Mostly Cloudy
12:56 PM 55.0 °F - 18.0 °F 23% 29.96 in 10.0 mi Calm Calm - N/A   Overcast
1:56 PM 57.2 °F - 19.4 °F 23% 29.93 in 9.0 mi Calm Calm - N/A   Clear
2:56 PM 55.9 °F - 21.9 °F 27% 29.91 in 9.0 mi Calm Calm - N/A   Overcast
3:56 PM 55.9 °F - 21.9 °F 27% 29.93 in 9.0 mi Calm Calm - N/A   Overcast
4:56 PM 55.0 °F - 21.9 °F 28% 29.93 in 9.0 mi Calm Calm - N/A   Overcast
5:56 PM 54.0 °F - 21.0 °F 28% 29.94 in 8.0 mi WNW 3.5 mph - N/A   Overcast
6:56 PM 52.0 °F - 24.1 °F 34% 29.94 in 7.0 mi Calm Calm - N/A   Overcast
7:56 PM 50.0 °F - 26.6 °F 40% 29.93 in 10.0 mi West 5.8 mph - N/A   Overcast
8:56 PM 46.9 °F - 32.0 °F 56% 29.99 in 10.0 mi WNW 8.1 mph - N/A   Overcast
9:56 PM 46.0 °F 38.8 °F 36.0 °F 68% 30.00 in 10.0 mi NNW 18.4 mph - N/A   Overcast
10:56 PM 45.0 °F 40.6 °F 36.0 °F 71% 30.02 in 10.0 mi WNW 8.1 mph - 0.00 in Rain Light Rain
11:56 PM 44.1 °F 40.8 °F 36.0 °F 73% 30.04 in 10.0 mi SW 5.8 mph - 0.00 in Rain Light Rain